www.pogodaiklimat.ru

Погода и климат >> Архив погоды >> Украина >> Помошная


ПОГОДА в Помошной

  • Прогноз погоды в Помошной
  • Монитор погоды в Помошной

АРХИВ ПОГОДЫ в Помошной

Время (UTC), дата Ветер
(напр.,м/с)
 
Видим.   Явления Облачность Т
(С)
Тd
(С)
f
(%)
Тe
(С)
Тes
(С)
Комфортность P
(гПа)
Po
(гПа)
Тmin
(С)
Tmax
(С)
R
(мм)
R24
(мм)
S
(см)
00 10.06 СВ 2 10 км ясно +19.8 +16.3 80 +23 +23 комфорт 1019.6 995.0
03 10.06 СВ 2 10 км 8/0
[Ci fib]
+18.9 +16.6 87 +21 +21 комфорт 1019.8 995.1
06 10.06 СВ 2 10 км ?/? +24.7 +17.2 63 +29 +29 душно 1019.5 995.3 +18.3
09 10.06 СВ 3 10 км ясно +29.6 +11.8 33 +30 +45 жарко 1018.5 994.7
12 10.06 В 5 10 км 6/6 600 м
[Cu hum]
+31.2 +10.9 29 +31 +34 жарко 1017.1 993.4
15 10.06 СВ 3 10 км 3/3 600 м
[Cu hum]
+31.0 +12.0 31 +31 +34 жарко 1016.1 992.4
18 10.06 СВ 2 10 км 6/0
[Ci sp]
+26.9 +14.1 45 +29 +29 жарко 1016.7 992.7 +32.0
21 10.06 СВ 1 10 км ясно +24.3 +17.3 65 +28 +28 душно 1016.9 992.7
00 11.06 СВ 1 10 км ясно +20.2 +14.0 68 +24 +24 комфорт 1016.6 992.1
03 11.06 СВ 1 10 км 6/0
[Ci fib]
+18.9 +15.0 78 +21 +22 комфорт 1016.7 992.1
06 11.06 СВ 3 10 км ясно +25.4 +16.7 59 +29 +36 душно 1016.1 992.0 +18.2
09 11.06 СВ 4 10 км ясно +30.3 +14.2 37 +32 +44 жарко 1015.9 992.2
12 11.06 В 4 10 км 1/1 600 м
[Cu hum]
+30.6 +12.5 33 +31 +40 жарко 1015.0 991.3
15 11.06 СВ 3 10 км ясно +30.2 +11.4 31 +31 +34 жарко 1014.5 990.8
18 11.06 С 3 10 км 1/0
[Cc]
+26.6 +12.9 43 +28 +28 жарко 1015.1 991.1 +31.6
21 11.06 С 3 10 км ясно +23.6 +13.2 52 +26 +26 жарко 1015.4 991.2
00 12.06 СВ 3 10 км ясно +21.3 +13.5 61 +24 +24 комфорт 1014.5 990.1
03 12.06 СВ 2 10 км 1/0
[Ci fib]
+19.7 +14.4 71 +22 +23 комфорт 1014.6 990.1
06 12.06 СВ 3 10 км ясно +24.9 +13.9 50 +27 +34 жарко 1014.2 990.1 +19.0
09 12.06 СВ 4 10 км ясно +30.5 +11.9 32 +31 +43 жарко 1013.6 989.9
12 12.06 СВ 5 10 км 1/1 600 м
[Cu hum]
+31.1 +9.8 27 +31 +38 жарко 1012.6 989.0
15 12.06 С 3 10 км ясно +31.1 +12.3 32 +32 +35 жарко 1012.2 988.6
18 12.06 СВ 1 10 км ясно +27.2 +15.2 48 +30 +30 душно 1012.8 988.9 +32.2
21 12.06 СВ 2 10 км 3/3 600 м
[Sc]
+22.8 +15.5 63 +27 +27 душно 1013.9 989.7
00 13.06 В 1 10 км ясно +20.3 +14.7 70 +24 +24 комфорт 1013.9 989.5
03 13.06 СВ 1 10 км 3/1 600 м
[Sc Ac trans]
+19.7 +15.0 74 +23 +23 комфорт 1014.7 990.2
06 13.06 СВ 1 10 км 8/6 600 м
[Cb cap Ac cast Ci ing]
+24.0 +15.9 61 +27 +30 жарко 1015.7 991.5 +19.0
09 13.06 ЮЗ 1 4000 м слаб. ливневой дождь 9/9 600 м
[Cb cap]
+25.0 +14.0 50 +27 +29 жарко 1016.9 992.7
12 13.06 З 2 4000 м слаб. ливневой дождь 10/10 600 м
[Cb cap]
+23.6 +14.9 58 +26 +26 жарко 1017.2 992.9
15 13.06 С 3 10 км {ливн. осадки} 10/0
[Cs]
+24.6 +15.1 55 +27 +30 жарко 1015.9 991.8
18 13.06 В 4 10 км гроза без осадков {ливн. осадки} 10/10 600 м
[Cb cap]
+23.8 +13.9 54 +26 +26 жарко 1017.3 993.0 +27.5 0.4
21 13.06 С 4 4000 м гроза, ливневой дождь 10/10 600 м
[Cb cap]
+20.3 +14.7 70 +23 +23 комфорт 1018.0 993.4
00 14.06 СЗ 2 10 км {гроза, ливн. осадки} 3/3 600 м
[Sc]
+18.2 +16.2 88 +19 +19 1017.9 993.1
03 14.06 С 2 10 км 3/0
[Ci fib]
+17.4 +16.0 91 +18 +18 1018.4 993.5
06 14.06 СВ 3 10 км 3/0
[Ci fib]
+23.5 +18.3 73 +28 +35 душно 1018.1 993.9 +17.1 13
12 14.06 В 3 10 км ясно +30.1 +18.7 50 +35 +47 очень
душно
1017.8 994.1
18 14.06 штиль 0 10 км 4/0
[Ci fib]
+27.1 +19.2 62 +33 +33 очень
душно
1016.7 992.8 +30.7
00 15.06 штиль 0 10 км ясно +20.6 +19.0 91 +24 +24 комфорт 1017.1 992.7
06 15.06 ЮЗ 1 10 км ясно +25.9 +18.2 63 +31 +40 очень
душно
1016.3 992.3 +19.0
12 15.06 СЗ 3 10 км 8/6 600 м
[Cb cap Ci fib]
+28.7 +18.8 55 +34 +38 очень
душно
1013.9 990.2
18 15.06 С 1 10 км 6/0
[Cc]
+26.0 +18.8 65 +31 +31 очень
душно
1013.4 989.5 +30.0
06 16.06 В 1 10 км ясно +25.8 +17.4 60 +30 +40 душно 1013.4 989.4 +19.0
12 16.06 С 4 10 км 9/9 600 м
[Cb cap]
+31.1 +13.9 35 +33 +34 душно 1012.6 989.0

 

Местоположение метеостанции Помошная (Кировоградская область, Украина): широта 48.23 долгота 31.40 высота над уровнем моря 211 м.

В архиве по умолчанию представлена погода в Помошной за последнюю неделю. Архивные данные за месяц целиком и за предыдущие месяцы, начиная с января 2011 года, Вы можете получить, выбрав интересующий диапазон дат из раскрывающегося списка и нажав кнопку "Ввод!".


*Определитесь, кто Вы:
робот инопланетянин человек

Внимание! Время в таблицах - всемирное. Для получения местного времени необходимо прибавить поправку, которая равна 2 ч.

Смотрите также архив погоды в соседних городах и на ближайших метеорологических станциях:

Погода в Первомайске (Николаевская область, Украина) (45 км)
Погода в Бобринце (Кировоградская область, Украина) (58 км)
Погода в Новомиргороде (Кировоградская область, Украина) (63 км)
Погода в Кропивницком (Кировоградская область, Украина) (67 км)
Погода в Вознесенске (Николаевская область, Украина) (74 км)
Погода в Любашевке (Одесская область, Украина) (94 км)
Погода в Звенигородке (Черкасская область, Украина) (101 км)
Погода в Долинской (Кировоградская область, Украина) (102 км)
Погода в Ротмистровке (Черкасская область, Украина) (102 км)
Погода в Умани (Черкасская область, Украина) (105 км)

Пояснения к столбцам:

Ветер - указаны скорость ветра в м/с - средняя за 10 мин, порывы в срок и между сроками (в фигурных скобках) и направление, откуда дует ветер: С - северный, СВ - северо-восточный, В - восточный, ЮВ - юго-восточный, Ю - южный, ЮЗ - юго-западный, З - западный, СЗ - северо-западный.
Видимость - горизонтальная дальность видимости в метрах или километрах. При видимости от 1 до 10 км при отсутствии осадков обычно наблюдается дымка, при ухудшении видимости до 1 км и менее - туман. В сухую погоду видимость может ухудшаться дымом, пылью или мглою.
Явления - указаны атмосферные явления, наблюдавшиеся в срок или в последний час перед сроком; фигурными скобками обозначены явления, наблюдавшиеся между сроками (за 1-3 часа до срока); квадратными скобками обозначены град или гололедные отложения с указанием их диаметра в мм.
Облачность - указаны через наклонную черту общая и нижняя облачность в баллах и высота нижней границы облаков в метрах; квадратными скобками обозначены формы облаков: Ci - перистые, Cs - перисто-слоистые, Cc - перисто-кучевые, Ac - высококучевые, As - высокослоистые, Sc - слоисто-кучевые, Ns - слоисто-дождевые, Cu - кучевые, Cb - кучево-дождевые. Подробнее классификацию облаков см. в Атласе облаков (PDF).
T - Температура воздуха - температура, измеренная на высоте 2 м над землей.
Td - Температура точки росы - температура, при понижении до которой содержащийся в воздухе водяной пар достигнет насыщения.
f - Относительная влажность воздуха - влажноcть воздуха, измеренная на высоте 2 м над землей.
Te - Эффективная температура - температура, которую ощущает одетый по сезону человек в тени. Характеристика душности погоды. При расчете учитывается влияние влажности воздуха и скорости ветра на теплоощущения человека.
Tes - Эффективная температура на солнце - температура, которую ощущает человек, с поправкой на солнечный нагрев. Характеристика знойности погоды. Зависит от высоты солнца над горизонтом, облачности и скорости ветра. Ночью, в пасмурную погоду, а также при ветре 12 м/с и более поправка равна нулю.
P - Атмосферное давление - приведенное к уровню моря атмосферное давление.
Po - Атмосферное давление - измеренное на уровне метеостанции атмосферное давление.
Tmin - Минимальная температура - минимум температуры воздуха на высоте 2 м над землей.
Tmax - Максимальная температура - максимум температуры воздуха на высоте 2 м над землей.
R - Количество осадков - Количество выпавших осадков за период времени, мм. При наведении курсора мыши на число - период времени, за который выпало указанное количество осадков.
R24 - Количество осадков - Количество выпавших осадков за 24 часа, мм.
S - Снежный покров - Высота снежного покрова, см. При наведении курсора мыши на число - состояние снежного покрова и степень покрытия местности в баллах.